GPS BIIF-9

Last updated on Sun Apr 12 2026 00:02:39 GMT+0000 (Coordinated Universal Time)

1 40534U 15013A 26100.75133280 -.00000014 00000+0 00000+0 0 9998 2 40534 53.1777 206.9663 0108813 39.9542 320.8490 2.00555404 80473
UTC large
Height (km)
Speed (km/s)
/
Latitude / Longitude
Inclination (degrees)
Orbital Period (minutes)
Azimuth
Elevation
Range (km)
Doppler Factor

Next 0 passes for location: London (51.5072 / 0.1276)

Sorry there are no passes over London.